Florennes, Belgium

10:54 PM CEST on September 19, 2017 (GMT +0200)
Florennes Air Base

Weather History for EBFS - July, 2013

Change the Weather History Date:

Sunday, July 21, 2013

  Actual Average Record
Temperature  
Mean Temperature 73 °F -  
Max Temperature 88 °F 67 °F 88 °F (2013)
Min Temperature 58 °F 54 °F 48 °F (2008)
Cooling Degree Days 8    
Growing Degree Days 23 (Base 50)    
Moisture  
Dew Point 59 °F    
Average Humidity 63    
Maximum Humidity 94    
Minimum Humidity 30    
Precipitation  
Precipitation 0.00 in - - ()
Sea Level Pressure  
Sea Level Pressure 30.08 in    
Wind  
Wind Speed 4 mph ()    
Max Wind Speed 6 mph    
Max Gust Speed 32 mph    
Visibility 7.1 miles    
Events      
Averages and records for this station are not official NWS values.
T = Trace of Precipitation, MM = Missing Value Source: Averaged Metar Reports

Daily Weather History Graph

Daily Weather History Graph

Search for Another Location

Airport or City:

Trip Planner

Search our weather history database for the weather conditions in past years. The results will help you decide how hot, cold, wet, or windy it might be!

Date:

Astronomy

Jul. 21, 2013 Rise Set
Actual Time 5:55 AM CEST 9:39 PM CEST
Civil Twilight 5:13 AM CEST 10:20 PM CEST
Nautical Twilight 4:17 AM CEST 11:16 PM CEST
Astronomical Twilight 2:49 AM CEST 12:42 AM CEST
Moon 8:19 PM CEST (7/21) 4:24 AM CEST (7/21)
Length of Visible Light 17h 06m
Length of Day
15h 44m
Waxing Gibbous, 97% of the Moon is Illuminated
Jul 21
Waxing Gibbous
Jul 22
Full
Jul 29
Last Quarter
Aug 6
New
Aug 14
First Quarter

Hourly Weather History & Observations

Time (CEST) Temp. Heat Index Dew Point Humidity Pressure Visibility Wind Dir Wind Speed Gust Speed Precip Events Conditions
12:25 AM 62.6 °F - 57.2 °F 82% 30.12 in 6.2 mi ENE 5.8 mph - N/A   Partly Cloudy
12:55 AM 60.8 °F - 57.2 °F 88% 30.12 in 6.2 mi ENE 5.8 mph - N/A   Partly Cloudy
1:25 AM 60.8 °F - 57.2 °F 88% 30.12 in 6.2 mi ENE 5.8 mph - N/A   Partly Cloudy
1:55 AM 60.8 °F - 57.2 °F 88% 30.12 in 5.6 mi East 4.6 mph - N/A   Partly Cloudy
2:00 AM 61 °F - 58 °F 85% 30.13 in 6 mi East 4.5 mph - -   Clear
2:25 AM 60.8 °F - 57.2 °F 88% 30.12 in 5.6 mi East 3.5 mph - N/A   Partly Cloudy
2:55 AM 60.8 °F - 57.2 °F 88% 30.09 in 5.6 mi East 4.6 mph - N/A   Partly Cloudy
3:25 AM 60.8 °F - 57.2 °F 88% 30.09 in 5.6 mi East 4.6 mph - N/A   Partly Cloudy
3:55 AM 59.0 °F - 57.2 °F 94% 30.09 in 5.6 mi East 3.5 mph - N/A   Partly Cloudy
4:25 AM 59.0 °F - 57.2 °F 94% 30.09 in 5.6 mi East 3.5 mph - N/A   Partly Cloudy
4:55 AM 59.0 °F - 57.2 °F 94% 30.09 in 6.2 mi East 4.6 mph - N/A   Partly Cloudy
5:25 AM 60.8 °F - 57.2 °F 88% 30.09 in 6.2 mi East 3.5 mph - N/A   Unknown
5:34 AM 59.0 °F - 55.4 °F 88% 30.09 in 4.3 mi East 3.5 mph - N/A   Unknown
5:45 AM 60.8 °F - 55.4 °F 82% 30.09 in 6.2 mi East 3.5 mph - N/A   Unknown
5:55 AM 59.0 °F - 57.2 °F 94% 30.09 in 5.6 mi Variable 2.3 mph - N/A   Partly Cloudy
6:25 AM 60.8 °F - 57.2 °F 88% 30.09 in 5.0 mi East 3.5 mph - N/A   Scattered Clouds
6:55 AM 60.8 °F - 57.2 °F 88% 30.09 in 6.2 mi East 3.5 mph - N/A   Partly Cloudy
7:25 AM 64.4 °F - 57.2 °F 77% 30.09 in 6.2 mi Variable 2.3 mph - N/A   Partly Cloudy
7:55 AM 66.2 °F - 59.0 °F 78% 30.09 in 6.2 mi East 3.5 mph - N/A   Partly Cloudy
8:00 AM 65 °F - 59 °F 74% 30.10 in 9 mi 2.2 mph - -   Clear
8:25 AM 68.0 °F - 60.8 °F 78% 30.09 in 6.2 mi East 3.5 mph - N/A   Partly Cloudy
8:55 AM 69.8 °F - 60.8 °F 73% 30.09 in 6.2 mi East 4.6 mph - N/A   Partly Cloudy
9:25 AM 71.6 °F - 59.0 °F 64% 30.09 in 6.2 mi East 3.5 mph - N/A   Partly Cloudy
9:55 AM 73.4 °F - 59.0 °F 61% 30.09 in 6.2 mi East 4.6 mph - N/A   Partly Cloudy
10:25 AM 75.2 °F - 59.0 °F 57% 30.09 in 6.2 mi Variable 2.3 mph 21.9 mph N/A   Partly Cloudy
10:55 AM 77.0 °F - 57.2 °F 50% 30.09 in 6.2 mi Variable 2.3 mph - N/A   Partly Cloudy
11:00 AM 77 °F - 58 °F 41% 30.09 in 16 mi 2.2 mph - -   Clear
11:25 AM 78.8 °F - 60.8 °F 54% 30.09 in 6.2 mi Variable 2.3 mph 21.9 mph N/A   Partly Cloudy
11:55 AM 78.8 °F - 59.0 °F 51% 30.09 in 6.2 mi Variable 2.3 mph - N/A   Partly Cloudy
12:25 PM 80.6 °F 81.1 °F 59.0 °F 48% 30.09 in 6.2 mi NNE 3.5 mph - N/A   Partly Cloudy
12:55 PM 82.4 °F 82.5 °F 59.0 °F 45% 30.09 in 6.2 mi ESE 5.8 mph 32.2 mph N/A   Partly Cloudy
1:25 PM 82.4 °F 82.0 °F 57.2 °F 42% 30.09 in 6.2 mi ESE 5.8 mph 24.2 mph N/A   Partly Cloudy
1:55 PM 82.4 °F 82.0 °F 57.2 °F 42% 30.09 in 6.2 mi East 4.6 mph - N/A   Partly Cloudy
2:00 PM 82 °F - 57 °F 33% 30.06 in 19 mi ESE 4.5 mph - -   Clear
2:25 PM 84.2 °F 83.8 °F 59.0 °F 42% 30.09 in 6.2 mi North 3.5 mph 17.3 mph N/A   Partly Cloudy
2:55 PM 84.2 °F 83.5 °F 57.2 °F 40% 30.06 in 6.2 mi NE 4.6 mph - N/A   Partly Cloudy
3:25 PM 86.0 °F 85.4 °F 59.0 °F 40% 30.06 in 6.2 mi NW 4.6 mph - N/A   Partly Cloudy
3:55 PM 84.2 °F 83.8 °F 59.0 °F 42% 30.06 in 6.2 mi Variable 3.5 mph - N/A   Partly Cloudy
4:25 PM 86.0 °F 84.9 °F 57.2 °F 37% 30.06 in 6.2 mi NNW 3.5 mph - N/A   Partly Cloudy
4:55 PM 84.2 °F 83.5 °F 57.2 °F 40% 30.06 in 6.2 mi Variable 2.3 mph - N/A   Partly Cloudy
5:00 PM 84 °F - 57 °F 30% 30.04 in 19 mi 2.2 mph - -   Scattered Clouds
5:25 PM 86.0 °F 84.9 °F 57.2 °F 37% 30.06 in 6.2 mi East 4.6 mph - N/A   Partly Cloudy
5:55 PM 84.2 °F 83.8 °F 59.0 °F 42% 30.06 in 6.2 mi Variable 2.3 mph - N/A   Partly Cloudy
6:25 PM 86.0 °F 84.9 °F 57.2 °F 37% 30.06 in 6.2 mi Variable 2.3 mph - N/A   Partly Cloudy
6:55 PM 84.2 °F 83.0 °F 55.4 °F 37% 30.04 in 6.2 mi Variable 3.5 mph - N/A   Partly Cloudy
7:18 PM 84.2 °F 83.8 °F 59.0 °F 42% 30.04 in 6.2 mi North 3.5 mph - N/A   Partly Cloudy
7:25 PM 84.2 °F 85.0 °F 62.6 °F 48% 30.04 in 6.2 mi North 4.6 mph - N/A   Partly Cloudy
7:55 PM 82.4 °F 82.9 °F 60.8 °F 48% 30.04 in 6.2 mi North 4.6 mph - N/A   Partly Cloudy
8:00 PM 83 °F - 61 °F 37% 30.01 in 19 mi North 4.5 mph - -   Scattered Clouds
8:25 PM 80.6 °F 82.3 °F 64.4 °F 58% 30.04 in 6.2 mi North 5.8 mph - N/A   Partly Cloudy
8:55 PM 78.8 °F - 64.4 °F 61% 30.06 in 6.2 mi Variable 2.3 mph - N/A   Partly Cloudy
9:25 PM 77.0 °F - 62.6 °F 61% 30.04 in 6.2 mi Variable 3.5 mph - N/A   Partly Cloudy
9:55 PM 77.0 °F - 62.6 °F 61% 30.06 in 6.2 mi Variable 2.3 mph - N/A   Partly Cloudy
10:25 PM 75.2 °F - 62.6 °F 65% 30.06 in 6.2 mi Variable 2.3 mph - N/A   Partly Cloudy
10:55 PM 75.2 °F - 62.6 °F 65% 30.06 in 6.2 mi Variable 2.3 mph - N/A   Partly Cloudy
11:00 PM 75 °F - 63 °F 57% 30.05 in 16 mi 2.2 mph - -   Clear
11:25 PM 73.4 °F - 62.6 °F 69% 30.06 in 6.2 mi Variable 1.2 mph - N/A   Partly Cloudy
11:55 PM 71.6 °F - 62.6 °F 73% 30.06 in 6.2 mi Variable 1.2 mph - N/A   Partly Cloudy